This demonstration page uses our WeatherBlox Daily Observations layout. Learn more.

Left ArrowRight Arrow

Hourly Observations for May 5, 2017

Temp ( °F °C ) Dew Point ( °F °C ) Humidity (%) Winds ( mph kmh ) Pressure ( in mb ) Visibility ( mi km ) Precip ( " mm )
12:56 am 00:56 Clear 43 6.1 39 4.1 87 87 Calm 30.04 1017 10 16 0.00 0.00
1:56 am 01:56 Clear 41 4.9 38 3.6 91 91 WNW 5 7 30.04 1017 10 16 0.00 0.00
2:56 am 02:56 Clear 47 8.4 41 4.8 78 78 WNW 6 9 30.03 1017 10 16 0.00 0.00
3:56 am 03:56 Clear 44 6.5 40 4.2 85 85 WNW 5 7 30.03 1017 10 16 0.00 0.00
4:56 am 04:56 Clear 40 4.5 38 3.5 93 93 Calm 30.03 1017 10 16 0.00 0.00
5:56 am 05:56 Clear 42 5.7 39 3.7 87 87 Calm 30.03 1017 10 16 0.00 0.00
6:56 am 06:56 Sunny 43 5.9 39 3.7 86 86 Calm 30.04 1017 10 16 0.00 0.00
7:56 am 07:56 Sunny 48 8.7 42 5.3 79 79 WNW 3 6 30.05 1018 10 16 0.00 0.00
8:56 am 08:56 Sunny 54 12.4 43 6 65 65 WNW 5 7 30.03 1017 10 16 0.00 0.00
9:56 am 09:56 Sunny 62 16.5 46 7.7 56 56 NW 7 11 30.03 1017 10 16 0.00 0.00
10:56 am 10:56 Sunny 67 19.7 42 5.3 39 39 WNW 12 19 30.03 1017 10 16 0.00 0.00
11:56 am 11:56 Sunny 71 21.4 41 4.9 34 34 WNW 10 17 30.02 1017 10 16 0.00 0.00
12:56 pm 12:56 Mostly Sunny 73 22.6 39 4.1 30 30 WNW 7 11 30.00 1016 10 16 0.00 0.00
1:56 pm 13:56 Sunny 74 23.3 42 5.7 32 32 NW 10 17 29.98 1015 10 16 0.00 0.00
2:56 pm 14:56 Sunny 75 23.9 38 3.2 26 26 NW 8 13 29.96 1014 10 16 0.00 0.00
3:56 pm 15:56 Sunny 76 24.7 40 4.4 27 27 NW 10 17 29.93 1013 10 16 0.00 0.00
4:56 pm 16:56 Sunny 76 24.7 39 3.9 26 26 NW 10 17 29.91 1013 10 16 0.00 0.00
5:56 pm 17:56 Sunny 77 24.8 37 2.8 24 24 W 8 13 29.89 1012 10 16 0.00 0.00
6:56 pm 18:56 Sunny 74 23.6 39 4 28 28 NW 8 13 29.88 1012 10 16 0.00 0.00
8:56 pm 20:56 Clear 58 14.5 46 8 65 65 WNW 3 6 29.88 1012 10 16 0.00 0.03
9:56 pm 21:56 Clear 55 12.6 43 6 64 64 Calm 29.87 1011 10 16 0.00 0.00
10:56 pm 22:56 Clear 56 13.2 42 5.6 60 60 Calm 29.86 1011 10 16 0.00 0.00
11:56 pm 23:56 Clear 52 11 42 5.7 70 70 Calm 29.85 1011 10 16 0.00 0.00

Powered by AerisWeather